IK5NLA Vaiano IT current weather conditions

sailwx.info

Wind from 331 at 0 knots

Air temperature 26.1° C
Dewpoint 15.2° C

Last reported at 2016-Jun-28 16:26 UTC.
Time now 2016-Jun-28 22:26 UTC

Location: N 43°58' E 011°06'.
View on Google Maps.

See reports from other nearby stations

  
Tides and Currents Weather Stations Pressure Air Temp Water Temp Dewpoint Dewpoint Depression Visibility Wind Speed Wind Dir Waves Ship Positions
date/time (UTC)wind fromknots sea level pressurealtimeterstation pressurevisibilityair tempwater tempwave heightnotes
2016-Jun-28 16:26 331 0 26.1
2016-Jun-28 16:21 271 1 25.6
2016-Jun-28 16:16 265 1 26.1
2016-Jun-28 16:11 264 1 26.1
2016-Jun-28 16:06 231 2 26.1
2016-Jun-28 16:01 276 1 26.7
2016-Jun-28 15:56 265 0 27.2
2016-Jun-28 15:51 238 0 27.2
2016-Jun-28 15:46 165 27.2
2016-Jun-28 15:41 203 27.2
2016-Jun-28 15:36 123 26.7
2016-Jun-28 15:31 319 27.2
2016-Jun-28 15:26 318 26.7
2016-Jun-28 15:21 318 27.2
2016-Jun-28 15:16 039 27.8
2016-Jun-28 15:11 229 27.8
2016-Jun-28 15:06 207 0 27.2
2016-Jun-28 15:01 150 0 26.7
2016-Jun-28 14:56 115 0 26.1
2016-Jun-28 14:51 120 0 26.1
2016-Jun-28 14:46 114 0 26.7
2016-Jun-28 14:41 255 0 26.1
2016-Jun-28 14:36 120 1 25.6
2016-Jun-28 14:31 141 0 25.6
2016-Jun-28 14:26 111 0 26.1
2016-Jun-28 14:21 126 1 25.6
2016-Jun-28 14:16 134 0 25.6
2016-Jun-28 14:11 107 0 26.1
2016-Jun-28 14:06 243 0 26.7
2016-Jun-28 14:01 214 0 26.7
2016-Jun-28 13:56 241 27.2
2016-Jun-28 13:51 026 27.2
2016-Jun-28 13:46 042 26.7
2016-Jun-28 13:41 042 26.1
2016-Jun-28 05:06 061 3 20.0
2016-Jun-28 05:01 057 3 20.0
2016-Jun-28 04:56 063 4 20.0
2016-Jun-28 04:51 069 4 19.4
2016-Jun-28 04:46 055 3 19.4
2016-Jun-28 04:41 027 3 19.4
2016-Jun-28 04:36 036 4 19.4
2016-Jun-28 04:31 075 4 19.4
2016-Jun-28 04:26 355 4 19.4
2016-Jun-28 04:21 036 4 19.4
2016-Jun-28 04:16 029 3 18.9
2016-Jun-28 04:11 021 3 18.9
2016-Jun-28 04:06 053 2 18.9
2016-Jun-28 04:01 050 2 18.9
2016-Jun-28 03:56 005 2 18.9
2016-Jun-28 03:51 355 2 18.9
2016-Jun-28 03:46 033 2 18.9
2016-Jun-28 03:41 028 3 18.9
2016-Jun-28 03:36 038 3 18.9
2016-Jun-28 03:31 355 3 18.9
2016-Jun-28 03:26 024 3 18.9
2016-Jun-28 03:21 028 2 18.9
2016-Jun-28 03:16 025 2 18.9
2016-Jun-28 03:11 016 3 18.9
2016-Jun-28 03:06 024 3 18.9
2016-Jun-28 03:01 009 3 18.9
2016-Jun-28 02:56 021 3 18.9
2016-Jun-28 02:51 333 4 18.9
2016-Jun-28 02:46 012 4 18.9
2016-Jun-28 02:41 011 3 18.3
2016-Jun-28 02:36 014 3 18.3
2016-Jun-28 02:31 032 4 18.3
2016-Jun-28 02:26 040 3 18.9
2016-Jun-28 02:21 027 4 18.9
2016-Jun-27 20:36 336 0 19.4
2016-Jun-27 20:31 351 0 19.4
2016-Jun-27 20:26 360 1 20.0
2016-Jun-27 20:21 342 3 20.0
2016-Jun-27 20:16 340 3 20.0
2016-Jun-27 20:11 334 3 20.0
2016-Jun-27 20:06 329 3 20.0
2016-Jun-27 20:01 335 2 20.0
2016-Jun-27 19:56 348 2 19.4
2016-Jun-27 19:51 344 2 19.4
2016-Jun-27 19:46 336 2 19.4
2016-Jun-27 19:41 345 2 19.4
2016-Jun-27 19:31 340 0 19.4
2016-Jun-27 19:26 330 0 20.0
2016-Jun-27 19:21 318 0 20.0
2016-Jun-27 19:16 319 1 19.4
2016-Jun-27 19:11 319 2 19.4
2016-Jun-27 19:06 325 2 19.4
2016-Jun-27 19:01 326 2 20.0
2016-Jun-27 18:56 322 2 20.0
2016-Jun-27 18:51 333 2 20.6
2016-Jun-27 18:46 343 0 20.6
2016-Jun-27 18:41 360 0 20.6
2016-Jun-27 18:36 340 1 20.6
2016-Jun-27 18:31 342 0 20.6
2016-Jun-27 18:26 020 0 20.6
2016-Jun-27 18:21 335 1 20.6
2016-Jun-27 18:16 327 1 21.1
2016-Jun-27 18:11 321 0 21.1
2016-Jun-27 18:06 026 1 21.7
2016-Jun-27 18:01 325 2 21.7
2016-Jun-27 17:56 314 3 21.7
2016-Jun-27 17:51 294 5 21.7
2016-Jun-27 17:46 290 6 21.7
2016-Jun-27 17:36 267 5 22.2
2016-Jun-27 17:31 274 4 22.2
2016-Jun-27 17:26 277 3 22.2
2016-Jun-27 17:21 277 4 22.2
2016-Jun-27 17:16 286 4 22.2
2016-Jun-27 17:11 277 3 22.2
2016-Jun-27 17:06 292 3 22.2
2016-Jun-27 17:01 280 2 22.8
2016-Jun-27 16:56 284 1 22.8
2016-Jun-27 16:51 264 0 23.3
2016-Jun-27 16:46 259 0 23.3
2016-Jun-27 16:41 271 1 23.3
2016-Jun-27 16:36 284 2 23.3
2016-Jun-27 16:31 234 3 23.3
2016-Jun-27 16:26 245 2 23.3
2016-Jun-27 16:21 254 2 23.3
2016-Jun-27 16:16 260 2 23.3
2016-Jun-27 16:11 265 2 23.3
2016-Jun-27 16:06 275 2 23.3
2016-Jun-27 16:01 232 2 23.3
2016-Jun-27 15:56 257 3 23.3
2016-Jun-27 15:51 249 3 23.3
2016-Jun-27 15:46 232 1 23.3
2016-Jun-27 15:41 267 2 23.3
2016-Jun-27 15:36 280 3 23.3
2016-Jun-27 15:31 253 1 23.9
2016-Jun-27 15:26 263 2 23.9
2016-Jun-27 15:21 254 3 23.3
2016-Jun-27 15:16 259 3 23.3
2016-Jun-27 15:11 234 3 23.3
2016-Jun-27 15:06 267 3 23.3
2016-Jun-27 15:01 246 3 23.3
2016-Jun-27 09:11 210 9 21.1
2016-Jun-27 09:06 265 9 20.6
2016-Jun-27 09:01 219 7 20.6
2016-Jun-27 08:56 273 6 20.6
2016-Jun-27 08:51 217 6 20.6
2016-Jun-27 08:46 238 7 20.6
2016-Jun-27 08:41 167 10 20.0
2016-Jun-27 08:36 219 9 20.6
2016-Jun-27 08:31 245 9 20.6
2016-Jun-27 05:37 164 0 17.8
2016-Jun-27 05:31 169 0 17.2
2016-Jun-27 05:26 188 0 17.2
2016-Jun-27 05:21 112 17.2
2016-Jun-27 05:16 186 0 16.7
2016-Jun-27 05:11 198 16.7
2016-Jun-27 05:06 201 16.7
2016-Jun-27 05:01 072 16.1
2016-Jun-27 04:51 061 15.6
2016-Jun-27 04:46 032 16.1
2016-Jun-27 04:41 064 16.1
2016-Jun-27 04:36 126 16.1
2016-Jun-27 04:31 127 16.1
2016-Jun-27 04:26 113 0 16.1
2016-Jun-27 04:21 056 0 16.1
2016-Jun-27 04:16 113 0 16.1
2016-Jun-27 04:11 107 16.1
2016-Jun-27 04:06 069 16.1
2016-Jun-27 04:01 125 0 16.1
2016-Jun-27 03:56 071 0 16.7
2016-Jun-27 03:51 089 1 16.7
2016-Jun-27 03:46 148 0 16.1
2016-Jun-27 03:41 111 0 16.1
2016-Jun-27 03:31 045 16.1
2016-Jun-27 03:26 132 1 16.7
2016-Jun-27 03:21 070 3 17.2
2016-Jun-27 03:16 126 1 17.8
2016-Jun-27 03:11 061 1 17.2
2016-Jun-27 03:06 144 1 17.2
2016-Jun-27 03:01 073 0 17.2
2016-Jun-27 02:56 115 2 17.8
2016-Jun-27 02:51 060 2 18.3
2016-Jun-27 02:46 056 1 17.8
2016-Jun-27 02:41 175 1 17.8
2016-Jun-26 23:47 183 1 18.3
2016-Jun-26 23:41 206 2 18.3
2016-Jun-26 23:36 217 3 18.3
2016-Jun-26 23:31 220 2 18.3
2016-Jun-26 23:26 248 1 18.3
2016-Jun-26 23:21 242 1 18.9
2016-Jun-26 23:16 236 3 18.9
2016-Jun-26 23:11 200 3 18.9
2016-Jun-26 23:06 231 1 18.9
2016-Jun-26 23:01 196 1 19.4
2016-Jun-26 22:56 187 2 19.4
2016-Jun-26 22:51 202 1 19.4
2016-Jun-26 22:46 236 1 18.9
2016-Jun-26 22:41 257 0 18.3
2016-Jun-26 22:36 300 17.8
2016-Jun-26 22:31 207 0 17.8
2016-Jun-26 22:26 194 1 18.3
2016-Jun-26 22:21 207 2 17.8
2016-Jun-26 22:16 177 2 17.8
2016-Jun-26 22:11 197 1 18.3
2016-Jun-26 22:06 152 0 18.3
2016-Jun-26 22:01 142 1 18.3